Rangeley, Maine, United States (04970)
Lat: 44.97N, Lon: 70.64W
Wx Zone: MEZ008
Local Info
Past Weather Observations for Today

NOTE: This archive is for the closest National Weather Service station to Rangeley. Information may differ from the station used for current weather conditions.

Click here for Long-term Archive

Time Weather Temperature Dewpoint Humidity Pressure Winds Precip Visibility
14:52
Mostly Cloudy
72°F / 22°C 52°F / 11°C 50% 29.86 in
(1011 mb)
Variable 6.9 mph
(Variable 11 kph)
- 10SM
13:52
Mostly Cloudy
68°F / 20°C 50°F / 10°C 53% 29.86 in
(1011 mb)
Variable 6.9 mph
(Variable 11 kph)
- 10SM
12:52
Mostly Cloudy
68°F / 20°C 48°F / 9°C 49% 29.83 in
(1010 mb)
W 6.9 mph
(W 11 kph)
- 10SM
11:52
Mostly Cloudy
68°F / 20°C 50°F / 10°C 53% 29.83 in
(1010 mb)
Variable 6.9 mph
(Variable 11 kph)
- 10SM
10:52
Mostly Cloudy
64°F / 18°C 52°F / 11°C 64% 29.8 in
(1009 mb)
NW 11.5 mph
(NW 19 kph)
- 10SM
09:52
Mostly Cloudy
63°F / 17°C 52°F / 11°C 68% 29.8 in
(1009 mb)
Variable 6.9 mph
(Variable 11 kph)
- 10SM
08:52
Overcast
61°F / 16°C 54°F / 12°C 77% 29.8 in
(1009 mb)
Variable 5.8 mph
(Variable 9 kph)
- 10SM
08:47
Overcast
61°F / 16°C 52°F / 11°C 72% 29.8 in
(1009 mb)
Variable 4.6 mph
(Variable 7 kph)
- 10SM
08:15
Mostly Cloudy
61°F / 16°C 52°F / 11°C 72% 29.77 in
(1008 mb)
Variable 3.5 mph
(Variable 6 kph)
- 10SM
07:52
Mostly Cloudy
59°F / 15°C 52°F / 11°C 77% 29.77 in
(1008 mb)
Variable 3.5 mph
(Variable 6 kph)
- 10SM
07:50
Mostly Cloudy
59°F / 15°C 52°F / 11°C 77% 29.77 in
(1008 mb)
Variable 4.6 mph
(Variable 7 kph)
- 10SM
07:41
Mostly Cloudy
59°F / 15°C 52°F / 11°C 77% 29.77 in
(1008 mb)
Variable 4.6 mph
(Variable 7 kph)
- 10SM
07:13
Mostly Cloudy
57°F / 14°C 54°F / 12°C 88% 29.74 in
(1007 mb)
Variable 5.8 mph
(Variable 9 kph)
- 10SM
06:52
Mostly Cloudy
57°F / 14°C 52°F / 11°C 82% 29.74 in
(1007 mb)
Calm - 10SM
06:13
Overcast
55°F / 13°C 52°F / 11°C 88% 29.71 in
(1006 mb)
Variable 5.8 mph
(Variable 9 kph)
- 10SM
05:52
Overcast
55°F / 13°C 54°F / 12°C 94% 29.71 in
(1006 mb)
Calm - 10SM
04:52
Overcast
57°F / 14°C 54°F / 12°C 88% 29.68 in
(1005 mb)
Variable 4.6 mph
(Variable 7 kph)
- 10SM
04:50
Overcast
57°F / 14°C 54°F / 12°C 88% 29.68 in
(1005 mb)
Variable 3.5 mph
(Variable 6 kph)
- 10SM
04:24
Overcast
57°F / 14°C 54°F / 12°C 88% 29.65 in
(1004 mb)
Variable 6.9 mph
(Variable 11 kph)
- 10SM
04:09
Overcast
57°F / 14°C 54°F / 12°C 88% 29.65 in
(1004 mb)
W 10.4 mph
(W 17 kph)
- 10SM
03:52
Overcast
57°F / 14°C 55°F / 13°C 94% 29.65 in
(1004 mb)
W 9.2 mph
(W 15 kph)
- 10SM
03:31
Overcast
57°F / 14°C 55°F / 13°C 94% 29.62 in
(1003 mb)
Calm - 8SM
02:52
Overcast
59°F / 15°C 57°F / 14°C 94% 29.62 in
(1003 mb)
Variable 5.8 mph
(Variable 9 kph)
- 8SM
01:52
Overcast
61°F / 16°C 57°F / 14°C 88% 29.59 in
(1002 mb)
Variable 3.5 mph
(Variable 6 kph)
- 10SM
00:52
Overcast
61°F / 16°C 57°F / 14°C 88% 29.56 in
(1001 mb)
Calm - 10SM
Time Weather Temperature Dewpoint Humidity Pressure Winds Precip Visibility


Weather for websites

WeatherForYou.com, LLC is not responsible for any damages or problems caused by this service. Current weather conditions are obtained from the closest station including government and personal stations which may have varying degrees of accuracy. Weather forecasts are derived from the NOAA NDFD. Like all things, this site belongs to Jesus Christ... He just trusts me to maintain it. If you have any questions or comments email webmaster@weatherforyou.com

Copyright © 2014, WeatherForYou.com LLC. All rights reserved.